• In Deutschland
  • Länderverzeichnis
  • Für 7 Tage
  • Wassertemperatur
  • Satellitenkarten
  • Wetterkarte
  • Widgets
  • user-avatar
    Anmelden

    Stündliche Wetter Neumünster

    Heute, 26 April, Donnerstag

    Zeit Temperatur Niederschläge Wind Luftdruck Luftfeuchtigkeit
    00:00 +4°C° 0 mm 4 m/S 754 mmHg 95%
    01:00 +4°C° 0 mm 3 m/S 754 mmHg 97%
    02:00 +4°C° 0 mm 3 m/S 754 mmHg 97%
    03:00 +4°C° 0 mm 3 m/S 754 mmHg 97%
    04:00 +4°C° 0 mm 3 m/S 754 mmHg 97%
    05:00 +4°C° 0,1 mm 4 m/S 754 mmHg 95%
    06:00 +5°C° 0,1 mm 4 m/S 754 mmHg 94%
    07:00 +6°C° 0 mm 4 m/S 754 mmHg 93%
    08:00 +7°C° 0,2 mm 5 m/S 754 mmHg 87%
    09:00 +8°C° 0,2 mm 5 m/S 755 mmHg 82%
    10:00 +9°C° 0,2 mm 6 m/S 755 mmHg 76%
    11:00 +9°C° 0,3 mm 7 m/S 755 mmHg 74%
    12:00 +10°C° 0,3 mm 7 m/S 755 mmHg 71%
    13:00 +10°C° 0,3 mm 8 m/S 756 mmHg 68%
    14:00 +10°C° 0,1 mm 8 m/S 756 mmHg 68%
    15:00 +10°C° 0,1 mm 8 m/S 756 mmHg 68%
    16:00 +9°C° 0,1 mm 7 m/S 756 mmHg 69%
    17:00 +9°C° 0 mm 7 m/S 756 mmHg 72%
    18:00 +8°C° 0 mm 6 m/S 756 mmHg 76%
    19:00 +7°C° 0 mm 5 m/S 757 mmHg 80%
    20:00 +6°C° 0 mm 5 m/S 757 mmHg 84%
    21:00 +5°C° 0 mm 4 m/S 757 mmHg 88%
    22:00 +4°C° 0 mm 4 m/S 758 mmHg 92%
    23:00 +4°C° 0 mm 4 m/S 758 mmHg 92%

    Morgen, 27 April, Freitag

    Zeit Temperatur Niederschläge Wind Luftdruck Luftfeuchtigkeit
    00:00 +3°C° 0 mm 4 m/S 758 mmHg 92%
    01:00 +3°C° 0 mm 4 m/S 758 mmHg 92%
    02:00 +3°C° 0 mm 4 m/S 757 mmHg 93%
    03:00 +3°C° 0 mm 4 m/S 757 mmHg 94%
    04:00 +3°C° 0 mm 4 m/S 757 mmHg 94%
    05:00 +4°C° 0 mm 4 m/S 757 mmHg 91%
    06:00 +4°C° 0 mm 4 m/S 757 mmHg 88%
    07:00 +5°C° 0 mm 4 m/S 757 mmHg 85%
    08:00 +7°C° 0 mm 4 m/S 757 mmHg 80%
    09:00 +10°C° 0 mm 4 m/S 757 mmHg 74%
    10:00 +11°C° 0 mm 4 m/S 757 mmHg 68%
    11:00 +12°C° 0,1 mm 4 m/S 757 mmHg 67%
    12:00 +12°C° 0,1 mm 4 m/S 757 mmHg 66%
    13:00 +13°C° 0,1 mm 4 m/S 756 mmHg 64%
    14:00 +12°C° 0,4 mm 3 m/S 756 mmHg 69%
    15:00 +12°C° 0,4 mm 3 m/S 756 mmHg 73%
    16:00 +12°C° 0,4 mm 2 m/S 756 mmHg 77%
    17:00 +12°C° 0,3 mm 1 m/S 755 mmHg 80%
    18:00 +11°C° 0,3 mm 1 m/S 755 mmHg 83%
    19:00 +9°C° 0,3 mm 0 m/S 755 mmHg 86%
    20:00 +10°C° 0 mm 1 m/S 755 mmHg 87%
    21:00 +8°C° 0 mm 2 m/S 754 mmHg 88%
    22:00 +8°C° 0 mm 3 m/S 754 mmHg 90%
    23:00 +8°C° 0,2 mm 3 m/S 754 mmHg 90%

    übermorgen, 28 April, Samstag

    Zeit Temperatur Niederschläge Wind Luftdruck Luftfeuchtigkeit
    00:00 +8°C° 0,2 mm 3 m/S 753 mmHg 91%
    01:00 +7°C° 0,2 mm 4 m/S 753 mmHg 91%
    02:00 +6°C° 0,3 mm 4 m/S 752 mmHg 92%
    03:00 +6°C° 0,3 mm 4 m/S 752 mmHg 92%
    04:00 +6°C° 0,3 mm 4 m/S 751 mmHg 93%
    05:00 +7°C° 0 mm 4 m/S 751 mmHg 92%
    06:00 +8°C° 0 mm 5 m/S 752 mmHg 91%
    07:00 +8°C° 0 mm 5 m/S 752 mmHg 91%
    08:00 +9°C° 0,1 mm 6 m/S 752 mmHg 90%
    09:00 +9°C° 0,1 mm 6 m/S 753 mmHg 89%
    10:00 +9°C° 0,1 mm 6 m/S 753 mmHg 88%
    11:00 +9°C° 0,1 mm 6 m/S 754 mmHg 87%
    12:00 +9°C° 0,1 mm 6 m/S 754 mmHg 85%
    13:00 +10°C° 0,1 mm 6 m/S 754 mmHg 84%
    14:00 +10°C° 0 mm 5 m/S 755 mmHg 82%
    15:00 +10°C° 0 mm 5 m/S 755 mmHg 80%
    16:00 +11°C° 0 mm 4 m/S 755 mmHg 77%
    17:00 +10°C° 0 mm 4 m/S 756 mmHg 80%
    18:00 +10°C° 0 mm 3 m/S 756 mmHg 82%
    19:00 +9°C° 0 mm 3 m/S 757 mmHg 84%
    20:00 +8°C° 0 mm 2 m/S 757 mmHg 87%
    21:00 +7°C° 0 mm 2 m/S 757 mmHg 89%
    22:00 +5°C° 0 mm 2 m/S 758 mmHg 92%
    23:00 +5°C° 0 mm 2 m/S 758 mmHg 92%

    29 April, Sonntag

    Zeit Temperatur Niederschläge Wind Luftdruck Luftfeuchtigkeit
    00:00 +5°C° 0 mm 2 m/S 758 mmHg 92%
    01:00 +4°C° 0 mm 2 m/S 758 mmHg 93%
    02:00 +4°C° 0 mm 2 m/S 758 mmHg 92%
    03:00 +4°C° 0 mm 2 m/S 758 mmHg 92%
    04:00 +4°C° 0 mm 2 m/S 758 mmHg 92%
    05:00 +5°C° 0 mm 2 m/S 758 mmHg 90%
    06:00 +5°C° 0 mm 3 m/S 758 mmHg 87%
    07:00 +5°C° 0 mm 3 m/S 758 mmHg 84%
    08:00 +7°C° 0,1 mm 3 m/S 758 mmHg 83%
    09:00 +7°C° 0,1 mm 4 m/S 758 mmHg 82%
    10:00 +8°C° 0,1 mm 4 m/S 758 mmHg 81%
    11:00 +8°C° 1 mm 4 m/S 757 mmHg 84%
    12:00 +8°C° 1 mm 5 m/S 757 mmHg 87%
    13:00 +7°C° 1 mm 5 m/S 756 mmHg 90%
    14:00 +7°C° 1,5 mm 5 m/S 756 mmHg 91%
    15:00 +7°C° 1,5 mm 5 m/S 756 mmHg 92%
    16:00 +5°C° 1,5 mm 6 m/S 756 mmHg 93%
    17:00 +5°C° 0,2 mm 6 m/S 755 mmHg 92%
    18:00 +5°C° 0,2 mm 7 m/S 754 mmHg 90%
    19:00 +5°C° 0,2 mm 7 m/S 754 mmHg 89%
    20:00 +5°C° 0,5 mm 7 m/S 754 mmHg 89%
    21:00 +5°C° 0,5 mm 7 m/S 753 mmHg 90%
    22:00 +5°C° 0,5 mm 6 m/S 753 mmHg 90%
    23:00 +5°C° 0,6 mm 6 m/S 753 mmHg 90%

    30 April, Montag

    Zeit Temperatur Niederschläge Wind Luftdruck Luftfeuchtigkeit
    00:00 +4°C° 0,6 mm 6 m/S 752 mmHg 90%
    01:00 +4°C° 0,6 mm 7 m/S 752 mmHg 91%
    02:00 +4°C° 0,9 mm 7 m/S 751 mmHg 91%
    03:00 +4°C° 0,9 mm 7 m/S 750 mmHg 92%
    04:00 +4°C° 0,9 mm 8 m/S 749 mmHg 93%
    05:00 +4°C° 1,5 mm 8 m/S 749 mmHg 93%
    06:00 +5°C° 1,5 mm 7 m/S 748 mmHg 94%
    07:00 +5°C° 1,5 mm 7 m/S 747 mmHg 95%
    08:00 +7°C° 0,9 mm 6 m/S 747 mmHg 95%
    09:00 +8°C° 0,9 mm 5 m/S 747 mmHg 95%
    10:00 +8°C° 0,9 mm 4 m/S 747 mmHg 95%
    11:00 +9°C° 0,1 mm 5 m/S 748 mmHg 91%
    12:00 +9°C° 0,1 mm 7 m/S 748 mmHg 87%
    13:00 +10°C° 0,1 mm 8 m/S 748 mmHg 84%
    14:00 +10°C° 0 mm 8 m/S 748 mmHg 80%
    15:00 +11°C° 0 mm 7 m/S 749 mmHg 76%
    16:00 +11°C° 0 mm 7 m/S 749 mmHg 72%
    17:00 +11°C° 0 mm 6 m/S 749 mmHg 74%
    18:00 +10°C° 0 mm 5 m/S 749 mmHg 77%
    19:00 +9°C° 0 mm 5 m/S 749 mmHg 80%
    20:00 +9°C° 0,1 mm 5 m/S 749 mmHg 81%
    21:00 +8°C° 0,1 mm 6 m/S 749 mmHg 82%
    22:00 +6°C° 0,1 mm 7 m/S 749 mmHg 83%
    23:00 +6°C° 0,1 mm 7 m/S 749 mmHg 84%

    1 Mai, Dienstag

    Zeit Temperatur Niederschläge Wind Luftdruck Luftfeuchtigkeit
    00:00 +5°C° 0,1 mm 8 m/S 749 mmHg 84%
    01:00 +3°C° 0,1 mm 9 m/S 750 mmHg 84%
    02:00 +3°C° 0,1 mm 9 m/S 750 mmHg 84%
    03:00 +3°C° 0,1 mm 10 m/S 750 mmHg 83%
    04:00 +5°C° 0,1 mm 10 m/S 750 mmHg 83%
    05:00 +5°C° 0,1 mm 10 m/S 751 mmHg 84%
    06:00 +5°C° 0,1 mm 10 m/S 751 mmHg 84%
    07:00 +5°C° 0,1 mm 10 m/S 752 mmHg 84%
    08:00 +5°C° 0,1 mm 10 m/S 753 mmHg 84%
    09:00 +5°C° 0,1 mm 10 m/S 753 mmHg 83%
    10:00 +5°C° 0,1 mm 10 m/S 754 mmHg 83%
    11:00 +6°C° 0,1 mm 9 m/S 755 mmHg 82%
    12:00 +6°C° 0,1 mm 9 m/S 755 mmHg 81%
    13:00 +6°C° 0,1 mm 8 m/S 756 mmHg 80%
    14:00 +7°C° 0 mm 8 m/S 756 mmHg 77%
    15:00 +7°C° 0 mm 8 m/S 757 mmHg 73%
    16:00 +9°C° 0 mm 7 m/S 757 mmHg 70%
    17:00 +8°C° 0 mm 6 m/S 757 mmHg 73%
    18:00 +7°C° 0 mm 5 m/S 757 mmHg 76%
    19:00 +7°C° 0 mm 4 m/S 758 mmHg 79%
    20:00 +5°C° 0 mm 4 m/S 758 mmHg 83%
    21:00 +4°C° 0 mm 4 m/S 759 mmHg 87%
    22:00 +3°C° 0 mm 3 m/S 759 mmHg 92%
    23:00 +2°C° 0 mm 3 m/S 759 mmHg 92%
    Mehr zeigen